Wind_Speed
80 73 73 75 74 65 60 56 57 63 60 59 66 60 58 51 53 58 64 60 58 60 67 70 70 69 81 98 105 108 105 109 117 115 110 102 97 98 89 88 84 66 58 57
78 78 77 78 74 66 66 64 64 60 53 49 56 55 56 50 48 54 62 60 59 56 58 64 66 66 74 91 100 106 105 111 112 110 113 106 99 105 98 88 87 74 59 56
82 82 81 79 71 66 74 71 60 56 47 39 43 47 48 48 47 56 56 54 55 55 52 56 59 62 71 84 93 95 101 108 107 108 111 105 102 106 109 106 90 83 67 64
85 84 83 82 72 68 71 67 62 50 42 38 38 40 41 42 44 48 51 52 53 51 51 53 57 59 71 79 86 90 94 102 106 103 110 106 102 102 106 113 110 100 80 75
86 84 85 82 66 64 67 58 54 45 38 32 29 30 31 31 36 42 45 44 47 48 47 50 54 57 70 76 83 89 95 102 104 101 105 105 103 99 105 109 107 109 93 80
85 84 85 82 76 77 66 54 52 45 38 30 24 21 20 22 27 32 36 37 40 44 44 46 51 54 61 74 83 91 95 103 105 103 101 101 105 100 96 109 107 114 98 82
84 82 81 77 81 84 78 59 49 38 34 29 21 15 13 16 19 24 28 29 32 37 40 42 48 54 57 72 80 87 94 100 106 104 102 99 102 105 99 109 111 109 104 96
81 79 78 76 78 78 73 52 47 45 39 33 24 17 10 8 13 18 21 22 24 27 30 34 39 45 50 60 72 80 89 97 103 103 100 97 102 106 104 103 117 117 111 103
80 80 77 74 78 81 79 62 53 56 47 38 26 19 13 7 4 6 10 14 18 22 27 28 28 30 33 44 57 65 75 88 96 101 97 95 101 107 105 101 109 116 113 111
77 75 73 75 81 80 79 70 60 62 52 41 32 26 22 13 5 2 5 7 9 13 15 17 20 22 25 33 44 54 63 75 88 94 92 89 95 105 103 104 111 111 115 111
75 74 72 68 71 76 81 76 73 71 61 49 35 34 28 21 15 13 14 16 19 21 22 19 19 20 24 31 38 42 49 60 72 88 90 85 89 98 105 102 105 113 113 110
69 70 68 64 66 72 78 81 80 80 70 61 49 37 37 34 29 29 27 27 28 31 34 30 28 29 28 31 36 41 47 55 73 85 82 83 87 95 103 102 107 107 110 108
66 65 62 59 61 67 72 81 83 81 67 57 51 48 42 43 44 41 37 39 37 34 38 40 41 49 47 50 50 49 46 58 66 84 90 88 87 92 99 100 104 101 109 111
64 62 61 60 56 60 66 73 78 68 62 49 53 54 58 63 58 54 49 55 57 65 58 66 72 57 72 75 65 50 48 36 23 78 86 88 90 93 96 101 103 106 107 106
62 58 56 56 47 51 57 62 66 62 52 48 45 55 59 61 64 75 74 80 76 81 76 72 60 71 59 62 53 57 42 61 57 48 47 87 89 90 90 96 100 103 104 104
58 55 53 53 44 42 46 51 57 60 49 43 34 50 48 60 66 71 64 72 71 63 63 65 56 69 57 59 52 46 45 50 51 44 40 82 86 88 88 91 97 101 102 105
55 50 47 47 47 35 37 42 47 50 52 42 31 33 42 46 60 60 61 60 60 57 54 47 48 40 32 42 31 32 37 28 33 45 47 80 87 86 86 89 93 96 97 100
51 46 42 42 45 27 28 31 37 39 44 42 32 24 23 45 44 54 47 49 52 50 45 42 38 37 38 29 19 12 12 17 24 46 54 65 82 81 84 88 92 91 93 98
49 44 42 37 38 34 21 23 27 31 34 34 33 34 25 34 37 39 41 40 41 36 41 34 30 27 22 21 15 10 14 30 40 46 61 65 67 72 80 86 87 89 91 95
49 43 39 36 35 35 20 17 19 20 24 27 26 25 25 15 34 29 31 28 31 27 25 18 17 14 6 3 14 9 11 13 29 51 53 52 66 70 74 77 82 89 88 92
49 44 38 34 32 34 30 17 14 15 15 15 18 18 16 11 8 14 14 19 14 14 10 6 6 8 2 4 7 10 20 25 36 47 56 62 64 68 72 77 80 83 88 91
48 45 37 32 29 30 29 26 18 13 12 12 12 11 12 11 9 4 4 7 4 7 7 7 9 13 16 14 14 17 19 36 44 45 61 65 68 71 74 80 82 85 84 83
53 43 38 30 27 26 25 24 22 17 12 10 7 6 7 5 4 4 1 8 13 15 17 17 19 20 21 25 28 28 30 36 41 52 54 62 69 72 76 80 85 89 92 97
49 46 40 31 25 25 23 22 22 22 21 17 10 10 9 8 6 6 6 8 10 11 13 15 17 17 19 23 26 34 42 46 48 50 54 58 64 68 72 77 83 88 93 98
42 48 40 38 25 24 23 23 21 21 22 21 18 14 12 11 12 15 16 16 16 16 16 17 18 19 20 22 24 26 28 32 35 38 41 45 52 60 65 69 77 80 84 88
43 45 46 38 30 23 22 23 24 24 22 19 18 17 16 15 14 13 12 12 13 15 17 20 23 25 26 28 30 31 33 35 37 39 42 45 49 52 56 61 65 69 73 76
Wind_Direction
332 332 330 327 323 318 313 306 294 288 289 286 280 274 273 272 266 254 257 258 255 249 243 240 239 230 226 225 224 220 221 221 219 214 213 213 211 208 207 206 206 210 216 218
336 335 334 331 328 323 319 314 309 306 300 287 279 276 277 275 261 250 251 253 252 252 244 236 233 228 227 223 222 217 217 218 219 215 214 211 209 210 206 203 206 211 207 211
341 337 336 333 334 334 320 315 316 316 312 299 284 280 278 271 259 250 256 256 251 249 248 240 232 224 221 222 220 219 216 218 217 215 211 210 210 210 210 209 207 204 210 216
343 338 338 338 339 337 324 323 329 322 313 304 292 280 274 267 260 255 253 249 246 245 243 237 231 220 217 217 219 218 215 215 215 212 209 211 211 208 209 211 212 212 213 218
344 340 340 339 342 346 343 334 332 330 327 319 304 287 279 268 257 248 247 247 246 245 243 239 230 221 214 214 215 215 212 211 212 212 211 212 212 210 209 212 211 215 213 215
344 343 342 345 352 354 352 347 343 336 336 328 319 301 281 266 255 248 247 244 239 239 238 234 230 224 213 216 213 213 211 208 211 210 210 211 214 212 210 207 208 210 210 216
345 344 347 352 356 355 1 355 352 358 358 343 336 327 304 268 246 239 238 237 235 234 232 229 229 224 216 213 215 214 211 209 208 209 209 210 211 213 213 208 207 210 211 217
346 347 351 353 357 1 5 3 11 8 12 5 358 352 333 301 270 251 238 226 220 220 223 222 223 226 221 213 216 215 213 210 207 208 208 208 208 208 212 212 211 215 215 220
348 349 353 357 1 3 10 16 24 20 17 16 13 11 8 354 289 242 223 216 213 211 216 219 219 218 215 216 213 213 213 212 209 207 206 207 207 207 211 213 212 216 219 221
350 352 358 359 0 5 11 16 29 30 27 18 20 30 34 37 48 163 174 174 178 177 177 182 190 195 196 200 206 206 206 208 207 205 205 208 209 207 210 212 211 215 218 220
351 354 359 2 2 5 14 22 28 29 33 35 36 49 53 55 69 93 110 121 134 133 127 136 141 153 168 180 188 190 194 199 202 202 204 206 208 208 210 213 214 216 222 223
353 355 2 3 4 7 14 23 30 28 29 33 41 53 65 68 76 87 99 112 114 121 125 134 136 130 138 150 156 168 173 182 198 201 202 206 207 209 209 212 215 219 223 224
355 356 4 5 6 8 16 20 25 28 30 44 51 59 68 79 84 91 95 100 109 117 122 120 116 112 114 121 130 134 152 176 184 199 204 206 209 210 212 214 217 220 222 226
355 355 1 9 8 9 17 22 26 33 33 46 73 84 90 94 97 100 105 103 103 100 98 103 98 101 120 117 104 110 120 121 177 205 203 207 208 212 213 214 217 221 224 227
354 357 1 11 9 12 17 23 27 35 41 39 77 92 90 93 92 99 94 94 95 101 100 100 105 108 109 128 121 128 144 140 143 144 210 206 210 213 216 217 219 223 226 229
356 357 0 8 16 13 17 25 25 33 40 48 71 90 93 93 99 97 102 107 102 103 113 114 111 123 121 133 145 146 156 169 160 173 188 206 209 215 218 220 222 225 228 232
358 358 359 6 17 12 19 24 30 26 36 39 51 70 87 103 108 106 105 108 112 107 110 113 115 120 134 145 154 171 172 180 192 199 203 206 208 215 218 221 225 229 231 234
0 357 0 5 14 19 16 21 34 34 31 37 36 57 72 105 118 115 114 114 122 124 126 114 117 131 126 129 145 144 171 182 202 206 210 208 211 216 220 223 227 231 233 235
1 357 359 4 11 21 20 20 29 40 42 39 35 30 44 111 117 127 122 124 127 123 128 121 121 130 141 144 124 177 168 206 206 210 212 217 219 220 223 227 230 234 237 238
359 1 359 3 13 18 25 18 27 32 46 44 41 40 39 89 132 121 127 116 131 130 129 126 148 130 136 147 184 166 208 208 215 216 218 222 226 226 228 231 236 237 241 244
360 4 359 4 14 19 25 17 13 25 33 44 57 52 55 73 92 120 128 116 124 96 71 143 133 153 163 231 280 245 231 227 230 224 224 226 228 229 233 236 239 242 245 247
4 2 0 5 17 21 22 29 19 8 5 24 38 51 52 51 80 117 202 187 339 335 329 320 306 301 289 300 274 264 270 243 235 231 230 231 233 235 238 240 242 245 250 257
6 1 4 359 16 29 27 31 32 24 4 349 353 19 33 36 22 25 104 230 259 264 275 272 285 282 287 280 267 272 274 265 250 244 242 238 239 242 245 248 249 253 255 258
4 6 3 358 13 28 34 38 34 34 37 30 1 344 337 335 329 321 319 305 290 283 281 281 281 280 273 269 270 269 267 269 268 265 262 260 256 254 255 256 257 259 262 262
1 9 5 2 359 16 25 34 39 35 34 37 34 22 1 340 324 316 311 306 301 297 294 290 288 288 288 286 283 280 276 274 274 273 272 271 269 268 269 269 268 269 271 273
1 0 7 4 358 2 16 24 33 40 38 36 35 31 25 19 12 4 353 332 313 303 298 297 295 293 291 290 289 288 288 286 285 284 283 282 281 280 279 278 278 278 280 281
Height
10461 10444 10428 10408 10386 10365 10354 10339 10326 10306 10302 10295 10278 10279 10280 10285 10288 10285 10281 10283 10288 10291 10300 10310 10324 10341 10350 10357 10376 10398 10426 10445 10470 10496 10518 10541 10571 10593 10606 10619 10627 10639 10644 10650
10449 10428 10412 10390 10370 10346 10327 10313 10297 10286 10279 10272 10260 10260 10257 10261 10265 10263 10259 10266 10270 10275 10282 10290 10303 10320 10327 10334 10350 10370 10398 10418 10443 10473 10496 10521 10548 10575 10592 10603 10613 10623 10627 10633
10435 10414 10398 10377 10356 10339 10301 10287 10278 10267 10255 10249 10243 10239 10236 10238 10241 10239 10241 10250 10255 10260 10266 10275 10286 10299 10308 10316 10333 10360 10380 10402 10430 10457 10483 10508 10530 10551 10569 10588 10596 10604 10610 10614
10426 10403 10385 10364 10341 10321 10290 10275 10259 10246 10236 10230 10224 10219 10218 10220 10223 10224 10227 10233 10238 10245 10252 10259 10268 10280 10291 10302 10320 10343 10368 10389 10412 10436 10465 10488 10509 10531 10551 10562 10579 10589 10596 10595
10418 10397 10376 10357 10337 10309 10282 10263 10248 10233 10223 10215 10208 10205 10204 10206 10207 10209 10213 10221 10227 10234 10241 10247 10255 10266 10277 10290 10308 10326 10348 10369 10392 10421 10447 10471 10490 10512 10530 10541 10564 10576 10579 10579
10415 10393 10369 10345 10319 10297 10271 10254 10239 10224 10213 10203 10198 10196 10195 10194 10196 10199 10202 10208 10214 10220 10227 10234 10242 10254 10267 10280 10287 10304 10330 10350 10374 10402 10428 10451 10471 10495 10517 10532 10549 10554 10565 10567
10411 10391 10367 10345 10322 10298 10269 10247 10233 10220 10208 10199 10194 10191 10188 10187 10187 10188 10191 10197 10203 10210 10216 10224 10231 10238 10250 10264 10277 10292 10313 10338 10361 10387 10410 10434 10457 10478 10499 10518 10530 10537 10548 10554
10408 10391 10366 10344 10322 10301 10278 10255 10235 10219 10207 10200 10193 10187 10184 10183 10182 10183 10186 10190 10194 10200 10207 10214 10221 10231 10242 10254 10267 10284 10305 10324 10349 10376 10400 10422 10445 10462 10479 10499 10516 10525 10535 10536
10404 10384 10363 10342 10323 10298 10275 10254 10235 10220 10208 10201 10193 10189 10184 10182 10181 10182 10183 10185 10188 10193 10199 10206 10214 10224 10235 10247 10261 10277 10299 10320 10343 10366 10393 10414 10434 10450 10470 10491 10502 10512 10522 10523
10404 10387 10365 10340 10321 10305 10286 10263 10244 10230 10217 10204 10196 10191 10188 10185 10182 10181 10184 10186 10190 10194 10200 10207 10214 10222 10232 10244 10257 10272 10291 10313 10338 10364 10388 10408 10427 10445 10461 10475 10489 10500 10508 10512
10404 10388 10367 10352 10339 10318 10297 10275 10252 10239 10226 10215 10204 10197 10191 10187 10185 10188 10190 10191 10193 10197 10204 10207 10212 10221 10230 10240 10254 10271 10289 10313 10341 10362 10382 10403 10420 10437 10451 10466 10476 10484 10489 10499
10410 10392 10373 10358 10346 10326 10305 10288 10268 10251 10234 10222 10216 10209 10202 10198 10198 10200 10198 10199 10202 10202 10204 10208 10216 10227 10239 10249 10263 10277 10295 10317 10340 10357 10381 10399 10415 10427 10443 10455 10464 10473 10483 10491
10416 10399 10386 10367 10352 10333 10319 10301 10286 10270 10256 10245 10234 10227 10218 10213 10212 10212 10213 10216 10217 10219 10220 10224 10232 10240 10248 10260 10275 10289 10307 10326 10338 10360 10376 10394 10408 10423 10437 10448 10457 10465 10474 10478
10416 10402 10387 10370 10355 10344 10330 10318 10307 10292 10282 10271 10261 10253 10245 10237 10233 10231 10230 10231 10233 10237 10241 10246 10253 10260 10269 10281 10295 10306 10325 10340 10353 10361 10375 10390 10405 10417 10429 10439 10447 10454 10461 10468
10418 10407 10393 10380 10366 10357 10344 10334 10324 10312 10302 10293 10283 10274 10269 10265 10260 10255 10254 10255 10255 10258 10265 10271 10277 10282 10292 10302 10310 10322 10333 10341 10350 10370 10370 10386 10401 10412 10423 10431 10439 10445 10451 10457
10422 10410 10397 10386 10377 10367 10356 10349 10335 10329 10321 10311 10302 10295 10291 10288 10284 10278 10276 10275 10279 10281 10282 10287 10292 10297 10303 10315 10322 10325 10332 10344 10353 10360 10364 10379 10395 10407 10415 10425 10431 10435 10440 10445
10427 10416 10404 10392 10383 10373 10366 10358 10350 10339 10336 10328 10322 10316 10309 10306 10301 10300 10297 10296 10296 10299 10301 10304 10309 10313 10318 10324 10327 10333 10340 10348 10355 10362 10369 10379 10391 10400 10412 10419 10425 10430 10434 10437
10430 10419 10410 10398 10389 10383 10375 10368 10362 10355 10344 10342 10336 10332 10326 10320 10319 10316 10316 10315 10315 10313 10313 10316 10322 10328 10333 10338 10343 10346 10350 10356 10360 10367 10373 10382 10392 10398 10406 10411 10415 10418 10421 10423
10432 10422 10413 10404 10395 10388 10382 10375 10369 10366 10361 10355 10351 10348 10344 10339 10334 10334 10331 10331 10330 10330 10330 10332 10337 10341 10345 10348 10352 10353 10357 10361 10366 10371 10378 10384 10391 10400 10404 10406 10409 10411 10414 10414
10434 10425 10416 10406 10399 10391 10386 10381 10377 10372 10370 10368 10364 10360 10357 10355 10350 10351 10347 10347 10345 10345 10345 10348 10349 10352 10355 10358 10359 10361 10364 10368 10372 10377 10382 10385 10388 10394 10398 10402 10401 10402 10405 10404
10437 10427 10419 10410 10402 10395 10389 10385 10382 10379 10375 10375 10376 10372 10369 10369 10368 10364 10362 10361 10359 10357 10359 10358 10359 10360 10363 10365 10366 10367 10369 10372 10375 10377 10380 10382 10387 10389 10390 10391 10392 10394 10391 10391
10439 10430 10422 10414 10406 10400 10394 10388 10386 10383 10380 10377 10376 10377 10376 10373 10372 10371 10370 10368 10369 10370 10369 10369 10368 10369 10368 10368 10369 10371 10373 10374 10375 10376 10379 10380 10381 10383 10384 10383 10382 10380 10378 10375
10440 10433 10425 10418 10410 10404 10399 10393 10388 10384 10382 10379 10378 10378 10378 10376 10373 10371 10373 10373 10371 10371 10371 10371 10371 10371 10370 10371 10371 10372 10372 10374 10375 10375 10375 10376 10377 10377 10377 10375 10374 10370 10365 10361
10443 10433 10426 10420 10414 10407 10402 10398 10393 10388 10383 10379 10377 10377 10378 10378 10377 10375 10373 10373 10373 10372 10370 10369 10368 10368 10368 10368 10368 10367 10367 10368 10369 10369 10368 10368 10368 10366 10364 10362 10360 10357 10351 10345
10442 10435 10427 10421 10415 10410 10405 10400 10396 10392 10387 10383 10381 10378 10377 10377 10377 10375 10373 10372 10370 10369 10368 10367 10366 10365 10364 10363 10362 10361 10361 10361 10360 10359 10357 10356 10355 10353 10350 10346 10343 10338 10332 10325
10440 10435 10429 10422 10416 10410 10406 10402 10398 10394 10390 10387 10384 10382 10379 10376 10374 10373 10372 10371 10370 10368 10366 10364 10362 10361 10360 10358 10356 10355 10354 10353 10351 10349 10348 10345 10342 10339 10334 10330 10326 10319 10312 10305